Location: Unspecified
(0.0000°N, 0.0000°E)
Time: 12:16:10
(UTC+00:00)

deb Explorer IX - All Passes

Search period start: 04 December 2016 00:00
Search period end: 14 December 2016 00:00
Orbit: 550 x 1123 km, 38.8° (Epoch: 02 December)

Date Brightness Start Highest point End Pass type
(mag) Time Alt. Az. Time Alt. Az. Time Alt. Az.
04 Dec - 01:29:57 10° SSW 01:36:26 43° SE 01:43:22 10° ENE night (unlit)
04 Dec - 03:17:26 10° WSW 03:24:10 42° NW 03:31:05 10° NNE visible
04 Dec - 12:33:37 10° NNE 12:34:37 11° NE 12:35:36 10° NE daylight
04 Dec - 14:17:30 10° NW 14:21:56 79° SW 14:26:04 10° SE daylight
05 Dec - 01:11:21 10° SSW 01:17:46 46° SE 01:24:45 10° ENE night (unlit)
05 Dec - 02:58:57 10° WSW 03:05:30 39° NW 03:12:19 10° NNE visible
05 Dec - 12:14:09 10° N 12:16:11 12° NE 12:18:07 10° ENE daylight
05 Dec - 13:58:59 10° NW 14:03:30 70° SW 14:07:38 10° SE daylight
06 Dec - 00:52:45 10° SSW 00:59:07 49° SE 01:06:08 10° ENE night (unlit)
06 Dec - 02:40:30 10° WSW 02:46:51 36° NW 02:53:32 10° NNE visible
06 Dec - 11:55:01 10° N 11:57:44 14° NE 12:00:16 10° ENE daylight
06 Dec - 13:40:27 10° WNW 13:45:03 62° SW 13:49:12 10° SE daylight
07 Dec - 00:34:10 10° SSW 00:40:27 53° SE 00:47:28 10° ENE night (unlit)
07 Dec - 02:22:05 10° W 02:28:12 33° NW 02:34:42 10° NNE night (unlit)
07 Dec - 11:35:59 10° N 11:39:16 17° NE 11:42:17 10° ENE daylight
07 Dec - 13:21:53 10° WNW 13:26:34 55° SW 13:30:44 10° SE daylight
08 Dec - 00:15:36 10° SW 00:21:47 57° SE 00:28:46 10° ENE night (unlit)
08 Dec - 02:03:39 10° W 02:09:32 30° NW 02:15:50 10° NNE night (unlit)
08 Dec - 11:17:01 10° N 11:20:47 19° NE 11:24:11 10° E daylight
08 Dec - 13:03:19 10° WNW 13:08:04 49° SW 13:12:16 10° SSE daylight
08 Dec - 23:57:03 10° SW 00:03:07 61° SE 00:10:04 10° ENE night (unlit)
09 Dec - 01:45:17 10° W 01:50:53 28° NW 01:56:56 10° NNE night (unlit)
09 Dec - 10:58:04 10° NNW 11:02:16 22° NE 11:06:02 10° E daylight
09 Dec - 12:44:44 10° WNW 12:49:33 45° SW 12:53:47 10° SSE daylight
09 Dec - 23:38:30 10° SW 23:44:27 66° SE 23:51:20 10° ENE night (unlit)
10 Dec - 01:26:55 10° W 01:32:14 25° NW 01:38:00 10° NNE night (unlit)
10 Dec - 10:39:08 10° NNW 10:43:45 25° NE 10:47:50 10° E daylight
10 Dec - 12:26:08 10° WNW 12:31:01 41° SW 12:35:17 10° SSE daylight
10 Dec - 21:37:29 10° SSE 21:38:33 10° SE 21:39:40 10° SE night (unlit)
10 Dec - 23:19:58 10° SW 23:25:48 71° SE 23:32:35 10° NE night (unlit)
11 Dec - 01:08:36 10° W 01:13:36 23° NW 01:19:02 10° NNE night (unlit)
11 Dec - 10:20:12 10° NNW 10:25:12 28° NE 10:29:34 10° E daylight
11 Dec - 12:07:31 10° WNW 12:12:28 37° SW 12:16:46 10° SSE daylight
11 Dec - 21:18:26 10° SSE 21:19:58 11° SE 21:21:32 10° ESE visible
11 Dec - 23:01:27 10° SW 23:07:08 77° SE 23:13:48 10° NE night (unlit)
12 Dec - 00:50:19 10° W 00:54:58 21° NW 01:00:02 10° N night (unlit)
12 Dec - 10:01:17 10° NNW 10:06:37 31° NE 10:11:16 10° E daylight
12 Dec - 11:48:54 10° WNW 11:53:53 35° SW 11:58:14 10° SSE daylight
12 Dec - 20:59:32 10° SSE 21:01:22 12° SE 21:03:17 10° ESE visible
12 Dec - 22:42:56 10° SW 22:48:28 83° SE 22:55:01 10° NE night (unlit)
13 Dec - 00:32:04 10° W 00:36:20 19° NW 00:40:57 10° N night (unlit)
13 Dec - 09:42:22 10° NNW 09:48:02 35° NE 09:52:56 10° ESE daylight
13 Dec - 11:30:15 10° WNW 11:35:17 32° SW 11:39:40 10° SSE daylight
13 Dec - 20:40:41 10° SSE 20:42:46 12° SE 20:44:57 10° ESE visible
13 Dec - 22:24:26 10° SW 22:29:49 90° SSE 22:36:13 10° NE night (unlit)
